This demonstration page uses our WeatherBlox Daily Observations layout. Learn more.

36.17497, -115.13722

Hourly Observations for September 11, 2019

Temp ( °F °C ) Dew Point ( °F °C ) Humidity (%) Winds ( mph kmh ) Pressure ( in mb ) Visibility ( mi km ) Precip ( " mm )
12:53 am 00:53 Clear 77 25 35 1.7 22 22 SW 16 26 29.74 1007 10 16.09344 0 0
1:53 am 01:53 Clear 76 24.4 29 -1.7 18 18 SSW 13 20 29.74 1007 10 16.09344 0 0
2:53 am 02:53 Clear 73 22.8 32 0 22 22 S 12 19 29.77 1008 10 16.09344 0 0
3:53 am 03:53 Clear 72 22.2 31 -0.6 22 22 SW 10 17 29.8 1009 10 16.09344 0 0
4:53 am 04:53 Clear 71 21.7 31 -0.6 23 23 W 5 7 29.83 1010 10 16.09344 0 0
5:53 am 05:53 Clear 68 20 31 -0.6 25 25 SE 6 9 29.85 1011 10 16.09344 0 0
6:53 am 06:53 Sunny 70 21.1 29 -1.7 22 22 WSW 3 6 29.88 1012 10 16.09344 0 0
7:53 am 07:53 Sunny 73 22.8 29 -1.7 19 19 WNW 7 11 29.94 1014 10 16.09344 0 0
8:53 am 08:53 Sunny 78 25.6 31 -0.6 18 18 NNW 10 17 29.94 1014 10 16.09344 0 0
9:53 am 09:53 Sunny 79 26.1 31 -0.6 17 17 VRB 6 9 29.97 1015 10 16.09344 0 0
10:53 am 10:53 Sunny 83 28.3 30 -1.1 15 15 undefined N/A 29.97 1015 10 16.09344 0 0
11:53 am 11:53 Sunny 83 28.3 30 -1.1 15 15 Calm 29.97 1015 10 16.09344 0 0
12:53 pm 12:53 Sunny 85 29.4 29 -1.7 13 13 VRB 7 11 29.97 1015 10 16.09344 0 0
1:53 pm 13:53 Sunny 86 30 29 -1.7 13 13 ESE 6 9 29.94 1014 10 16.09344 0 0
2:53 pm 14:53 Sunny 88 31.1 29 -1.7 12 12 SSE 7 11 29.91 1013 10 16.09344 0 0
3:53 pm 15:53 Sunny 89 31.7 27 -2.8 11 11 SW 7 11 29.91 1013 10 16.09344 0 0
4:53 pm 16:53 Sunny 89 31.7 27 -2.8 11 11 VRB 7 11 29.91 1013 10 16.09344 0 0
5:53 pm 17:53 Sunny 88 31.1 27 -2.8 11 11 WNW 3 6 29.91 1013 10 16.09344 0 0
6:53 pm 18:53 Sunny 88 31.1 27 -2.8 11 11 W 6 9 29.91 1013 10 16.09344 0 0
7:53 pm 19:53 Clear 85 29.4 26 -3.3 12 12 NE 9 15 29.94 1014 10 16.09344 0 0
8:53 pm 20:53 Clear 82 27.8 27 -2.8 13 13 E 7 11 29.97 1015 10 16.09344 0 0
9:53 pm 21:53 Clear 81 27.2 29 -1.7 15 15 W 5 7 29.97 1015 10 16.09344 0 0
10:53 pm 22:53 Clear 79 26.1 30 -1.1 17 17 WNW 7 11 29.97 1015 10 16.09344 0 0
11:53 pm 23:53 Clear 76 24.4 30 -1.1 18 18 NW 3 6 30 1016 10 16.09344 0 0

Powered by AerisWeather